This demonstration page uses our WeatherBlox Daily Observations layout. Learn more.

36.17497, -115.13722

Hourly Observations for September 5, 2018

Temp ( °F °C ) Dew Point ( °F °C ) Humidity (%) Winds ( mph kmh ) Pressure ( in mb ) Visibility ( mi km ) Precip ( " mm )
12:53 am 00:53 Clear 82 27.8 49 9.4 32 32 WNW 5 7 29.85 1011 10 16.09344 0 0
1:53 am 01:53 Clear 80 26.7 47 8.3 31 31 NNW 8 13 29.85 1011 10 16.09344 0 0
2:53 am 02:53 Clear 79 26.1 46 7.8 31 31 WNW 6 9 29.85 1011 10 16.09344 0 0
3:53 am 03:53 Clear 79 26.1 46 7.8 31 31 Calm 29.88 1012 10 16.09344 0 0
4:53 am 04:53 Clear 76 24.4 47 8.3 36 36 N 3 6 29.88 1012 10 16.09344 0 0
5:53 am 05:53 Clear 76 24.4 47 8.3 36 36 Calm 29.91 1013 10 16.09344 0 0
6:53 am 06:53 Sunny 76 24.4 48 8.9 37 37 Calm 29.94 1014 10 16.09344 0 0
7:53 am 07:53 Sunny 80 26.7 48 8.9 33 33 SW 6 9 29.97 1015 10 16.09344 0 0
8:53 am 08:53 Sunny 84 28.9 46 7.8 27 27 SSE 3 6 29.97 1015 10 16.09344 0 0
9:53 am 09:53 Sunny 87 30.6 48 8.9 26 26 Calm 29.97 1015 10 16.09344 0 0
10:53 am 10:53 Sunny 89 31.7 48 8.9 24 24 Calm 29.97 1015 10 16.09344 0 0
11:53 am 11:53 Sunny 92 33.3 47 8.3 21 21 N 3 6 29.97 1015 10 16.09344 0 0
12:53 pm 12:53 Sunny 94 34.4 46 7.8 19 19 Calm 29.94 1014 10 16.09344 0 0
1:53 pm 13:53 Sunny 95 35 45 7.2 18 18 ESE 5 7 29.91 1013 10 16.09344 0 0
2:53 pm 14:53 Sunny 94 34.4 45 7.2 18 18 NNE 10 17 29.91 1013 10 16.09344 0 0
3:26 pm 15:26 Sunny with Nearby Thunderstorms 96 35.6 46 7.8 18 18 N 3 6 29.77 1008 10 16.09344 0 0
3:49 pm 15:49 Sunny 97 36 45 7 17 17 N 5 7 29.77 1008 10 16.09344 0 0
3:53 pm 15:53 Sunny 97 36.1 45 7.2 17 17 N 6 9 29.88 1012 10 16.09344 0 0
4:07 pm 16:07 Sunny with Nearby Thunderstorms 97 36.1 45 7.2 17 17 NNW 7 11 29.77 1008 10 16.09344 0 0
4:36 pm 16:36 Sunny 96 35.6 45 7.2 17 17 SSE 9 15 29.77 1008 10 16.09344 0 0
4:53 pm 16:53 Sunny 96 35.6 44 6.7 17 17 N 5 7 29.88 1012 10 16.09344 0 0
5:53 pm 17:53 Sunny 96 35.6 44 6.7 17 17 N 5 7 29.88 1012 10 16.09344 0 0
6:53 pm 18:53 Sunny 94 34.4 43 6.1 17 17 SSE 8 13 29.88 1012 10 16.09344 0 0
7:53 pm 19:53 Clear 92 33.3 44 6.7 19 19 Calm 29.91 1013 10 16.09344 0 0
8:53 pm 20:53 Clear 91 32.8 44 6.7 20 20 E 6 9 29.91 1013 10 16.09344 0 0
9:53 pm 21:53 Clear 89 31.7 46 7.8 23 23 NNE 6 9 29.94 1014 10 16.09344 0 0
10:53 pm 22:53 Clear 85 29.4 47 8.3 27 27 N 5 7 29.94 1014 10 16.09344 0 0
11:53 pm 23:53 Clear 86 30 46 7.8 25 25 ENE 7 11 29.94 1014 10 16.09344 0 0

Powered by AerisWeather